Regional Weather Roundup
Issued by NWS Kansas City/Pleasant Hill, MO

Home | Current Version | Previous Version | Graphics & Text | Print | Product List | Glossary Off
Versions: 1 2 3 4 5 6 7 8 9 10 11 12 13 14 15 16 17 18 19 20 21 22 23 24 25 26 27

000
ASUS43 KEAX 212010
RWREAX

WEATHER ROUNDUP FOR EASTERN KANSAS AND NORTHWEST MISSOURI
NATIONAL WEATHER SERVICE KANSAS CITY/PLEASANT HILL MO
300 PM CDT TUE MAR 21 2017

KSZ040-057-103>105-MOZ028-029-037-043-212100-
...KANSAS CITY METROPOLITAN AREA...

CITY           SKY/WX    TMP DP  RH WIND       PRES   REMARKS
K.C. INTL      CLOUDY    58  26  29 NE22G30   30.23F
K.C. DOWNTOWN  CLOUDY    61  28  28 NE17G35   30.22F
LEES SUMMIT    PTSUNNY   59  31  34 NE23      30.22F
OLATHE - IXD   PTSUNNY   59  35  40 NE20G26   30.22F
OLATHE - OJC   CLOUDY    58  35  42 NE18      30.21F
LAWRENCE       CLOUDY    61  30  31 NE20G26   30.22F

$$

MOZ001>008-011>017-020>025-030>033-038>040-044>046-053-054-212100-
...NORTHERN AND CENTRAL MISSOURI...

CITY           SKY/WX    TMP DP  RH WIND       PRES   REMARKS
ST. JOSEPH     LGT RAIN  58  26  29 E22G29    30.26F
MOSBY          PTCLDY    59  23  25 NE20G28   30.24F
WARRENSBURG    CLOUDY    59  36  41 NE18G28   30.22F
WHITEMAN AFB   PTSUNNY   61  37  41 NE21      30.20F
CLINTON        CLOUDY    59  39  47 NE17G26   30.19F
SEDALIA        CLOUDY    61  37  41 NE18G26   30.23F
WARSAW         NOT AVBL
CHILLICOTHE      N/A     57  25  29 N15G26    30.29S
KIRKSVILLE     CLOUDY    51  34  52 N15       30.30S

$$

MOZ041-047>049-056>058-063>065-088>090-097-212100-
...EASTERN AND SOUTHERN MISSOURI...

CITY           SKY/WX    TMP DP  RH WIND       PRES   REMARKS
ST. LOUIS INTL CLOUDY    65  33  30 N10       30.21S
SPIRIT OF STL  CLOUDY    60  34  37 NE9       30.19F
COLUMBIA       CLOUDY    61  38  42 NE18      30.22F
JEFFERSON CITY CLOUDY    61  38  42 NE9G18    30.21F
ROLLA          CLOUDY    52  42  69 NE14      30.19F
OSAGE BEACH    CLOUDY   N/A N/A N/A NE14G21   30.19F
SPRINGFIELD    CLOUDY    56  45  66 NE23      30.12R
BRANSON        PTSUNNY   70  55  60 NE13      30.06F
JOPLIN         PTSUNNY   63  47  55 NE23G35   30.09R
WEST PLAINS    CLOUDY    58  51  78 N10       30.13R

$$

IAZ060-094-KSZ022-034>040-054-083-096-NEZ052-066-093-212100-
...KANSAS...SOUTHEAST NEBRASKA AND IOWA...

CITY           SKY/WX    TMP DP  RH WIND       PRES   REMARKS
TOPEKA         PTSUNNY   62  30  29 E23G30    30.20F
MANHATTAN      MOSUNNY   60  28  29 NE24G30   30.22S
EMPORIA        CLOUDY    60  41  49 NE24G33   30.16F
CHANUTE        CLOUDY    63  42  46 NE20G31   30.12R
WICHITA        PTSUNNY   66  41  40 NE22G31   30.11R
OMAHA          CLOUDY    47  33  58 N12G21    30.37S
LINCOLN        CLOUDY    47  34  60 NE20G25   30.37F
FALLS CITY     CLOUDY    55  33  43 NE15G25   30.28F
LAMONI         CLOUDY    48  36  63 NE14      30.30F
DES MOINES     CLOUDY    48  27  44 N10       30.34F

$$





USA.gov is the U.S. government's official web portal to all federal, state and local government web resources and services.